Lake Superior Provincial Park, Ontario

Past 24 Hour Conditions

This table is a summary of hourly weather conditions for the past 24 hours. This summary includes the following parameters: temperature, humidity, dew point, wind speed and direction, air pressure, visibility and/or wind chill and humidex.
Date / Time
(EDT)
Conditions Temp (°C) Humidity (%) Dew Point (°C) Wind (km/h) Pressure (kPa) Visibility (km)
24 July 2014
2:00 N/A 6   97 6 SSE 6 102.0 N/A
1:00 N/A 7 96 6 SSE 5 102.0 N/A
00:00 N/A 8 95 7 SSE 5 102.0 N/A
23 July 2014
23:00 N/A 9 94 8 SSE 5 102.0 N/A
22:00 N/A 10 90 9 calm 102.0 N/A
21:00 N/A 12 84 10 SSW 2 102.1 N/A
20:00 N/A 15 68 9 WNW 5 102.1 N/A
19:00 N/A 16 68 10 WSW 7 102.1 N/A
18:00 N/A 16 69 11 WSW 4 102.1 N/A
17:00 N/A 17 66 10 WNW 6 102.2 N/A
16:00 N/A 17 64 10 NW 6 102.2 N/A
15:00 N/A 15 72 10 WNW 7 102.2 N/A
14:00 N/A 18   60 10 N 6 102.1 N/A
13:00 N/A 18   62 10 N 5 102.1 N/A
12:00 N/A 16 70 10 NNW 2 102.2 N/A
11:00 N/A 15 74 10 N 8 102.2 N/A
10:00 N/A 15 74 11 NE 9 102.2 N/A
9:00 N/A 13 88 11 NNE 3 102.1 N/A
8:00 N/A 11 95 10 N 7 102.1 N/A
7:00 N/A 10 96 10 N 9 102.0 N/A
6:00 N/A 10 95 9 N 8 101.9 N/A
5:00 N/A 11 95 10 NNE 6 101.8 N/A
4:00 N/A 11 95 10 NE 2 101.8 N/A
3:00 N/A 12 96 11 N 8 101.7 N/A
2:00 N/A 12 98 12 NNW 3 101.7 N/A
N/A
Not available
 ↑ 
Highest temperature
 ↓ 
Lowest temperature

If you require additional historical weather information, please visit Climate Data Online.